Location: Br�znic
(45.9167°N, 22.6500°E)
Time: 12:41:25
(UTC+00:00)

Cosmos 2333 - Pass Details

Date: 03 March 2021
Orbit: 829 x 867 km, 70.9° (Epoch: 11 April)

Event Time Altitude Azimuth Distance (km) Brightness Sun altitude
Rises 18:30:54 0° 209° (SSW) 3,373 7.5 -23.6°
Reaches altitude 10° 18:33:19 10° 211° (SSW) 2,447 6.8 -24.0°
Maximum altitude 18:38:57 77° 297° (WNW) 872 4.3 -24.9°
Drops below altitude 10° 18:44:40 10° 24° (NNE) 2,489 6.6 -25.9°
Sets 18:47:09 0° 26° (NNE) 3,435 7.3 -26.3°
